SHIJIAN-17 (SJ-17) (41838 NORAD) Tracking and Keplerian Element Data

This shows tracking and keplerian element data for the satellite.

Feedback or suggestion? Click here.




ElementValue
Catalog41838
NameSHIJIAN-17 (SJ-17)
Epoch Orbit1053
Epoch Day261.93543684
Epoch Year2019
RAAN95.3392
Inclination0.973
Eccentricity0.0001327
Argument of Perigee16.8651
Mean Anonmoly316.294
Mean Motion1.00270739
Decay Rate-2.66E-06
L11 41838U 16065A 19261.93543684 -.00000266 00000-0 00000-0 0 9998
L22 41838 0.9730 95.3392 0001327 16.8651 316.2940 1.00270739 10539

Live tracking and technical data element details for SHIJIAN-17 (SJ-17) (NORAD 41838). SHIJIAN-17 (SJ-17) can be tracked NOW for your location showing map with azimuth and elevation plus other details from your city location.

Track the satellite on the map from your city or location and see movement details for azimuth, elevation, latitude, longitude, range, height, and movement on the map or in text.







IsCatalogInMostPopularTable: catalog: 41838, numindb: 305
Update: records affected: 1



GetName: 41838 SHIJIAN-17 (SJ-17)

Hit Count: updated at: Thu, 19 Sep 2019 17:33:37 GMT